Showing default

O3B FM18, 44115

Orbit data source: Space-Track

O3B FM18, 44115 is a payload satellite owned by O3B SES (JE) that was launched on Thu, 04 Apr 2019 UTC via a SOYUZ-ST-B launch vehicle from the French Guiana (FRGUI). Payload-class satellites include a variety of spacecraft equipped with specific instruments for various scientific and technological missions. These include communications satellites like Starlink; space stations such as the ISS; scientific satellites like the Hubble; Earth observation satellites from companies like Planet Labs, Umbra, and HawkEye 360; GPS; miniature CubeSats for education and research; and military/defense satellites.

Loading next visibility...
Identifier
44115, 2019-020D
Orbit
Active
Last TLE update
18 hours ago
Origin
Manufacturer
Thales Alenia
Mission
Operational Commercial Communications
Bus & Motor
PRISMA?, LS-400 AOCS?
Mass
700 kg wet, ~500 kg dry
Launch date (UTC)
2019-04-04 (6 years ago)
Launch vehicle
SOYUZ-ST-B
Launch site
French Guiana (FRGUI)
Object type
Payload
Rocket body
Debris
Shape & HBR
Trap Box + 2 Pan, 12 m
Radar Cross Section
21.980 m², Large (>1 m²)

Expand to show TLE details & history

TLE from 18 hours ago
0 O3B FM18
1 44115U 19020D   25191.65230960 -.00000015  00000-0  00000-0 0  9993
2 44115   0.0478 356.1785 0002869 110.3695 253.4829  5.00115166114566
Epoch: 2025-07-10T15:39Z
TLE epoch observation values (Epoch: 2025-07-10T15:39:19.549Z)
Latitude
0.00069°
Longitude
-163.64699°
Altitude
8,065.558 km
Speed
5.254 km/s
True Right ascension
23h 59m 59s
True Declination
0° 00' 02"
Sunlit
Object was in daylight at epoch
Visualization orbit readout
Latitude
-0.04109°
Longitude
143.46498°
Altitude
8,068.278 km
Speed
5.253 km/s
Apparent Right ascension
19h 35m 13s
Apparent Declination
-21° 18' 43"
Sunlit
Object is in daylight
Visualization observer readout
Local Sidereal Time
22:26:13
Azimuth
221.383° SW
Elevation
16.947°
Doppler factor
1
Orbital elements
Apogee altitude
8,073.1 km
Perigee altitude
8,064.81 km
Semi-major axis
14,447.092 km
Eccentricity
0.00029
Inclination
0.0478°
RAAN
356.1785°
Arg. of periapsis
110.3695°
True anomaly
Unknown
Mean anomaly
253.4829°
Eccentric anomaly
Unknown
Mean motion
1.24989 °/min
Orbital period
288.02 mins
BSTAR
0
Loading maneuver chart data...
Loading SW <> Apogee altitude chart data...
Loading historical data...
Loading historical data...
Loading historical data...
Loading historical data...
Loading historical data...
Loading historical data...
Loading historical data...
Other satellites on launch #20 in the year 2019 (2019-04-04 UTC)

O3B FM18 Visibility forecast

Observer location: undefined°, undefined°

Span
Click to sort rows by Start time (UTC) header in descending order
Start Az.
Max El. time (UTC)
Max El. Az.
Max El.
End time (UTC)
End Az.
69 mins2025-07-11 10:08:23.564Z221.346° SW2025-07-11 10:38:23.564Z179.157° S24.358°2025-07-11 11:17:23.564Z127.798° SE
78 mins2025-07-11 15:59:23.564Z231.13° WSW2025-07-11 16:37:23.564Z180.703° SSW24.41°2025-07-11 17:17:23.564Z127.748° SE
78 mins2025-07-11 21:59:23.564Z231.109° WSW2025-07-11 22:37:23.564Z180.631° SSW24.378°2025-07-11 23:17:23.564Z127.781° SE
78 mins2025-07-12 03:59:23.564Z231.03° WSW2025-07-12 04:37:23.564Z180.646° SSW24.327°2025-07-12 05:17:23.564Z127.831° SE
9 mins2025-07-12 09:59:23.564Z231.052° WSW2025-07-12 10:08:23.564Z221.349° SW16.222°2025-07-12 10:08:23.564Z221.349° SW
|